Hai Yang 4-01

operational
NORAD ID: 61936 Int'l Des: 2024-208 Owner: GYZ/CASC Country: CN
LEOCIRCULARRETROGRADESSO

Über Hai Yang 4-01

Beschreibung wird geladen...

Live-Position

3D-Globus wird geladen...

Nächste Überflüge

Höhenverlauf

Altitude vs Time

uPlot chart will show altitude changes over time

Zweizeiliger Elementsatz

1 61936U 24208A 26071.00479483 .00000661 00000-0 10992-3 0 9999
2 61936 98.0072 80.0782 0002526 107.7079 252.4405 14.73272119 71135
Epoch: 12. März 2026 • Age: 22 hours

Aktueller Status

Höhe 661.6 km
Geschwindigkeit 7.53 km/s
Subsatellitenpunkt 74.52°N, 154.18°E
Startdatum 13. Nov. 2024
Alter 1.3 years
Typ other

Technische Details

Klassifizierung Payload
Masse 1500.00 kg
Trockenmasse 1500.00 kg
Gesamtmasse 1500.00 kg
Länge 1.00 m
Durchmesser 1.00 m
Spannweite 4.00 m
Form Box + 2 Pan
Hersteller CAST
Bus-Typ CAST-968
Phasenstatus In Orbit
Besitzer/Staat GYZ/CASC/CN

Große Konstellationen

Loading constellations...